This is the latest recevied weather packets stored in our database for station/object WE8M. If no packets are shown the sender has not sent any weather packets the latest 10 day(s).
| Time | Temp. | Humidity | Pressure | Rain* | Wind** | Luminosity | Snow |
|---|---|---|---|---|---|---|---|
| 1777991573 | 18.33° C | 62% | 1009.7 hPa | 0 mm | - | - | - |
| 1777990967 | 18.33° C | 63% | 1009.4 hPa | 0 mm | - | - | - |
| 1777990665 | 18.33° C | 63% | 1009.5 hPa | 0 mm | - | - | - |
| 1777990058 | 19.44° C | 63% | 1008.9 hPa | 0 mm | - | - | - |
| 1777989451 | 19.44° C | 65% | 1009.4 hPa | 0 mm | - | - | - |
| 1777988238 | 18.33° C | 65% | 1009.5 hPa | 0 mm | - | - | - |
| 1777987934 | 18.33° C | 66% | 1009.9 hPa | 0 mm | - | - | - |
| 1777987630 | 17.78° C | 67% | 1009.9 hPa | 0 mm | - | - | - |
| 1777987328 | 17.78° C | 66% | 1010.1 hPa | 0 mm | - | - | - |
| 1777987025 | 18.33° C | 68% | 1010 hPa | 0 mm | - | - | - |
| 1777986420 | 18.33° C | 67% | 1009.9 hPa | 0 mm | - | - | - |
| 1777984601 | 17.22° C | 68% | 1009.8 hPa | 0 mm | - | - | - |
| 1777984298 | 17.22° C | 70% | 1009.9 hPa | 0 mm | - | - | - |
| 1777983994 | 16.67° C | 71% | 1009.9 hPa | 0 mm | - | - | - |
| 1777983692 | 16.67° C | 71% | 1009.8 hPa | 0 mm | - | - | - |
| 1777983085 | 16.11° C | 72% | 1009.8 hPa | 0 mm | - | - | - |
| 1777980959 | 16.11° C | 75% | 1009.7 hPa | 0 mm | - | - | - |
| 1777980656 | 16.11° C | 73% | 1009.7 hPa | 0 mm | - | - | - |
| 1777980051 | 16.11° C | 68% | 1009.6 hPa | 0 mm | - | - | - |
| 1777979750 | 15.56° C | 68% | 1009.5 hPa | 0 mm | - | - | - |
| 1777979446 | 15.56° C | 69% | 1009.5 hPa | 0 mm | - | - | - |
| 1777978232 | 16.11° C | 68% | 1009 hPa | 0 mm | - | - | - |
| 1777977323 | 16.11° C | 67% | 1009.1 hPa | 0 mm | - | - | - |
| 1777977021 | 16.67° C | 67% | 1009.1 hPa | 0 mm | - | - | - |
| 1777976717 | 16.67° C | 66% | 1009 hPa | 0 mm | - | - | - |
* Rain latest hour (hover to see other rain measurements)
** Current wind speed in m/s (hover to see current wind gust speed)